• In Czech Republic
  • List of Countries
  • For 7 days
  • Water Temperature
  • Satellite Maps
  • Weather Map
  • Weather Widgets
  • user-avatar
    Login

    Hourly Weather Bloomington

    Today, 20 February, Tuesday

    Time Temperature Precipitation Wind Pressure Humidity
    00:00 +17°C° 0 mm 5 mps 741 mmHg 84%
    01:00 +17°C° 0 mm 5 mps 741 mmHg 84%
    02:00 +17°C° 0 mm 6 mps 741 mmHg 85%
    03:00 +17°C° 0 mm 6 mps 741 mmHg 86%
    04:00 +17°C° 0.1 mm 7 mps 741 mmHg 86%
    05:00 +17°C° 0.1 mm 7 mps 742 mmHg 87%
    06:00 +17°C° 0.1 mm 7 mps 742 mmHg 87%
    07:00 +18°C° 0.1 mm 7 mps 742 mmHg 84%
    08:00 +18°C° 0.1 mm 8 mps 742 mmHg 82%
    09:00 +20°C° 0.1 mm 8 mps 743 mmHg 79%
    10:00 +21°C° 0.1 mm 8 mps 743 mmHg 74%
    11:00 +22°C° 0.1 mm 9 mps 743 mmHg 68%
    12:00 +23°C° 0.1 mm 9 mps 743 mmHg 63%
    13:00 +23°C° 0 mm 8 mps 743 mmHg 63%
    14:00 +23°C° 0 mm 8 mps 742 mmHg 62%
    15:00 +23°C° 0 mm 7 mps 742 mmHg 62%
    16:00 +22°C° 0 mm 7 mps 742 mmHg 66%
    17:00 +21°C° 0 mm 6 mps 742 mmHg 70%
    18:00 +20°C° 0 mm 5 mps 742 mmHg 75%
    19:00 +20°C° 0 mm 6 mps 743 mmHg 77%
    20:00 +20°C° 0 mm 6 mps 743 mmHg 80%
    21:00 +19°C° 0 mm 6 mps 743 mmHg 82%
    22:00 +19°C° 0.1 mm 6 mps 743 mmHg 84%
    23:00 +19°C° 0.1 mm 6 mps 743 mmHg 86%

    Tomorrow, 21 February, Wednesday

    Time Temperature Precipitation Wind Pressure Humidity
    00:00 +19°C° 0.1 mm 6 mps 743 mmHg 88%
    01:00 +17°C° 0.8 mm 7 mps 743 mmHg 88%
    02:00 +17°C° 0.8 mm 7 mps 744 mmHg 88%
    03:00 +16°C° 0.8 mm 7 mps 744 mmHg 87%
    04:00 +14°C° 2.8 mm 6 mps 745 mmHg 88%
    05:00 +10°C° 2.8 mm 6 mps 746 mmHg 88%
    06:00 +7°C° 2.8 mm 5 mps 747 mmHg 88%
    07:00 +6°C° 1.3 mm 5 mps 748 mmHg 87%
    08:00 +5°C° 1.3 mm 5 mps 749 mmHg 86%
    09:00 +5°C° 1.3 mm 5 mps 750 mmHg 84%
    10:00 +3°C° 0.8 mm 5 mps 751 mmHg 84%
    11:00 +3°C° 0.8 mm 5 mps 751 mmHg 83%
    12:00 +4°C° 0.8 mm 4 mps 752 mmHg 82%
    13:00 +2°C° 0.9 mm 5 mps 752 mmHg 81%
    14:00 +2°C° 0.9 mm 5 mps 752 mmHg 79%
    15:00 +2°C° 0.9 mm 5 mps 752 mmHg 78%
    16:00 +2°C° 0.5 mm 5 mps 752 mmHg 79%
    17:00 +2°C° 0.5 mm 5 mps 752 mmHg 79%
    18:00 +2°C° 0.5 mm 5 mps 752 mmHg 80%
    19:00 +2°C° 0.6 mm 5 mps 752 mmHg 82%
    20:00 +2°C° 0.6 mm 5 mps 753 mmHg 83%
    21:00 +2°C° 0.6 mm 5 mps 753 mmHg 84%
    22:00 +2°C° 0.7 mm 5 mps 752 mmHg 85%
    23:00 +2°C° 0.7 mm 5 mps 752 mmHg 87%

    Day after tomorrow, 22 February, Thursday

    Time Temperature Precipitation Wind Pressure Humidity
    00:00 +2°C° 0.7 mm 5 mps 752 mmHg 88%
    01:00 +2°C° 0.2 mm 5 mps 751 mmHg 88%
    02:00 +2°C° 0.2 mm 5 mps 751 mmHg 88%
    03:00 +2°C° 0.2 mm 5 mps 751 mmHg 88%
    04:00 +2°C° 0.1 mm 5 mps 751 mmHg 88%
    05:00 +2°C° 0.1 mm 5 mps 751 mmHg 88%
    06:00 +2°C° 0.1 mm 5 mps 751 mmHg 88%
    07:00 +2°C° 0.1 mm 5 mps 751 mmHg 87%
    08:00 +2°C° 0.1 mm 5 mps 752 mmHg 87%
    09:00 +2°C° 0.1 mm 5 mps 752 mmHg 86%
    10:00 +4°C° 0 mm 4 mps 752 mmHg 82%
    11:00 +6°C° 0 mm 4 mps 752 mmHg 79%
    12:00 +8°C° 0 mm 3 mps 752 mmHg 75%
    13:00 +9°C° 0 mm 3 mps 751 mmHg 75%
    14:00 +9°C° 0 mm 3 mps 751 mmHg 76%
    15:00 +10°C° 0 mm 3 mps 750 mmHg 76%
    16:00 +9°C° 0 mm 3 mps 750 mmHg 79%
    17:00 +9°C° 0 mm 2 mps 750 mmHg 83%
    18:00 +8°C° 0 mm 2 mps 751 mmHg 86%
    19:00 +8°C° 0 mm 2 mps 751 mmHg 87%
    20:00 +8°C° 0 mm 3 mps 751 mmHg 87%
    21:00 +7°C° 0 mm 3 mps 750 mmHg 88%
    22:00 +7°C° 0 mm 3 mps 750 mmHg 90%
    23:00 +6°C° 0 mm 2 mps 750 mmHg 92%

    23 February, Friday

    Time Temperature Precipitation Wind Pressure Humidity
    00:00 +6°C° 0 mm 2 mps 749 mmHg 94%
    01:00 +6°C° 0 mm 2 mps 749 mmHg 95%
    02:00 +6°C° 0 mm 2 mps 748 mmHg 95%
    03:00 +6°C° 0 mm 2 mps 748 mmHg 96%
    04:00 +7°C° 1.6 mm 2 mps 747 mmHg 96%
    05:00 +7°C° 1.6 mm 3 mps 746 mmHg 96%
    06:00 +8°C° 1.6 mm 3 mps 746 mmHg 97%
    07:00 +8°C° 3.7 mm 3 mps 746 mmHg 96%
    08:00 +9°C° 3.7 mm 2 mps 746 mmHg 96%
    09:00 +9°C° 3.7 mm 2 mps 745 mmHg 96%
    10:00 +9°C° 4.7 mm 2 mps 745 mmHg 96%
    11:00 +10°C° 4.7 mm 2 mps 745 mmHg 96%
    12:00 +11°C° 4.7 mm 1 mps 745 mmHg 96%
    13:00 +12°C° 1.6 mm 1 mps 745 mmHg 96%
    14:00 +12°C° 1.6 mm 1 mps 744 mmHg 96%
    15:00 +13°C° 1.6 mm 1 mps 744 mmHg 95%
    16:00 +13°C° 0.1 mm 1 mps 744 mmHg 96%
    17:00 +12°C° 0.1 mm 1 mps 744 mmHg 96%
    18:00 +12°C° 0.1 mm 1 mps 744 mmHg 97%
    19:00 +12°C° 0 mm 1 mps 743 mmHg 97%
    20:00 +12°C° 0 mm 1 mps 743 mmHg 97%
    21:00 +12°C° 0 mm 1 mps 743 mmHg 97%
    22:00 +12°C° 0.3 mm 1 mps 743 mmHg 97%
    23:00 +12°C° 0.3 mm 1 mps 742 mmHg 98%

    24 February, Saturday

    Time Temperature Precipitation Wind Pressure Humidity
    00:00 +12°C° 0.3 mm 1 mps 742 mmHg 98%
    01:00 +12°C° 1.1 mm 1 mps 741 mmHg 97%
    02:00 +12°C° 1.1 mm 1 mps 741 mmHg 97%
    03:00 +12°C° 1.1 mm 1 mps 740 mmHg 97%
    04:00 +12°C° 2.6 mm 1 mps 739 mmHg 97%
    05:00 +12°C° 2.6 mm 2 mps 739 mmHg 97%
    06:00 +12°C° 2.6 mm 2 mps 738 mmHg 97%
    07:00 +13°C° 3.1 mm 2 mps 738 mmHg 97%
    08:00 +13°C° 3.1 mm 2 mps 738 mmHg 97%
    09:00 +13°C° 3.1 mm 2 mps 739 mmHg 97%
    10:00 +14°C° 1.5 mm 2 mps 738 mmHg 96%
    11:00 +14°C° 1.5 mm 1 mps 738 mmHg 96%
    12:00 +15°C° 1.5 mm 1 mps 737 mmHg 95%
    13:00 +15°C° 1.7 mm 1 mps 737 mmHg 95%
    14:00 +15°C° 1.7 mm 1 mps 736 mmHg 94%
    15:00 +15°C° 1.7 mm 1 mps 736 mmHg 94%
    16:00 +15°C° 1.1 mm 2 mps 735 mmHg 95%
    17:00 +14°C° 1.1 mm 3 mps 735 mmHg 96%
    18:00 +14°C° 1.1 mm 3 mps 735 mmHg 97%
    19:00 +15°C° 1.5 mm 4 mps 733 mmHg 95%
    20:00 +15°C° 1.5 mm 5 mps 732 mmHg 93%
    21:00 +16°C° 1.5 mm 6 mps 731 mmHg 91%
    22:00 +16°C° 0.7 mm 7 mps 730 mmHg 89%
    23:00 +16°C° 0.7 mm 8 mps 729 mmHg 87%

    25 February, Sunday

    Time Temperature Precipitation Wind Pressure Humidity
    00:00 +17°C° 0.7 mm 9 mps 728 mmHg 85%
    01:00 +16°C° 1 mm 8 mps 727 mmHg 85%
    02:00 +16°C° 1 mm 8 mps 727 mmHg 84%
    03:00 +16°C° 1 mm 8 mps 726 mmHg 83%
    04:00 +13°C° 0 mm 8 mps 727 mmHg 79%
    05:00 +11°C° 0 mm 9 mps 727 mmHg 75%
    06:00 +8°C° 0 mm 10 mps 728 mmHg 71%
    07:00 +7°C° 0 mm 10 mps 729 mmHg 71%
    08:00 +6°C° 0 mm 11 mps 731 mmHg 71%
    09:00 +4°C° 0 mm 11 mps 732 mmHg 70%
    10:00 +6°C° 0 mm 10 mps 734 mmHg 69%
    11:00 +6°C° 0 mm 9 mps 736 mmHg 67%
    12:00 +7°C° 0 mm 9 mps 737 mmHg 65%
    13:00 +9°C° 0 mm 8 mps 738 mmHg 63%
    14:00 +9°C° 0 mm 7 mps 739 mmHg 60%
    15:00 +10°C° 0 mm 6 mps 740 mmHg 57%
    16:00 +8°C° 0 mm 5 mps 740 mmHg 60%
    17:00 +8°C° 0 mm 3 mps 741 mmHg 64%
    18:00 +7°C° 0 mm 2 mps 742 mmHg 67%
    19:00 +6°C° 0 mm 2 mps 742 mmHg 69%
    20:00 +7°C° 0 mm 1 mps 742 mmHg 71%
    21:00 +6°C° 0 mm 1 mps 743 mmHg 72%
    22:00 +6°C° 0 mm 1 mps 743 mmHg 74%
    23:00 +5°C° 0 mm 1 mps 743 mmHg 75%
    Show more